TimeMST,TemperatureF,Dew PointF,Humidity,Sea Level PressureIn,VisibilityMPH,Wind Direction,Wind SpeedMPH,Gust SpeedMPH,PrecipitationIn,Events,Conditions,WindDirDegrees,DateUTC
12:53 AM,30.9,21.9,69,30.26,10.0,SW,12.7,-,N/A,,Overcast,220,2012-12-10 07:53:00
1:37 AM,32.0,21.2,64,30.18,10.0,SW,15.0,-,N/A,,Overcast,220,2012-12-10 08:37:00
1:53 AM,32.0,21.9,66,30.24,10.0,SW,12.7,-,N/A,,Overcast,220,2012-12-10 08:53:00
2:53 AM,32.0,25.0,75,30.22,10.0,SSW,8.1,-,N/A,,Overcast,210,2012-12-10 09:53:00
3:37 AM,30.2,26.6,86,30.16,2.5,SW,11.5,-,0.00,Snow,Light Snow,220,2012-12-10 10:37:00
3:53 AM,30.0,28.0,92,30.22,1.8,SSW,10.4,-,0.00,Snow,Light Snow,200,2012-12-10 10:53:00
3:58 AM,30.2,28.4,93,30.15,2.0,SSW,9.2,-,0.00,Snow,Light Snow,210,2012-12-10 10:58:00
5:08 AM,30.2,28.4,93,30.14,4.0,SSW,9.2,-,0.00,,Overcast,210,2012-12-10 12:08:00
5:19 AM,30.2,30.2,100,30.13,3.0,SW,6.9,-,0.00,Snow,Light Snow,220,2012-12-10 12:19:00
5:53 AM,30.9,30.9,100,30.19,8.0,West,9.2,-,0.00,,Overcast,260,2012-12-10 12:53:00
6:11 AM,30.2,30.2,100,30.12,10.0,West,15.0,-,N/A,,Overcast,260,2012-12-10 13:11:00
6:27 AM,30.2,30.2,100,30.11,10.0,West,15.0,21.9,N/A,,Overcast,260,2012-12-10 13:27:00
6:53 AM,30.9,28.9,92,30.18,10.0,West,12.7,21.9,N/A,,Overcast,260,2012-12-10 13:53:00
7:05 AM,30.2,28.4,93,30.10,10.0,WSW,18.4,23.0,N/A,,Overcast,250,2012-12-10 14:05:00
7:53 AM,30.9,28.9,92,30.17,10.0,West,16.1,23.0,N/A,,Overcast,260,2012-12-10 14:53:00
8:09 AM,30.2,30.2,100,30.10,10.0,West,16.1,21.9,N/A,,Overcast,260,2012-12-10 15:09:00
8:50 AM,33.8,30.2,87,30.10,10.0,West,15.0,25.3,0.00,,Overcast,260,2012-12-10 15:50:00
8:53 AM,33.1,30.9,92,30.17,10.0,West,16.1,24.2,0.00,,Overcast,260,2012-12-10 15:53:00
9:41 AM,33.8,32.0,93,30.13,10.0,West,20.7,31.1,0.01,,Overcast,270,2012-12-10 16:41:00
9:53 AM,34.0,32.0,92,30.19,10.0,West,17.3,29.9,0.01,,Overcast,270,2012-12-10 16:53:00
10:53 AM,34.0,30.9,89,30.19,10.0,West,26.5,36.8,0.00,,Overcast,270,2012-12-10 17:53:00
11:27 AM,35.6,32.0,87,30.13,10.0,West,18.4,31.1,0.00,,Mostly Cloudy,270,2012-12-10 18:27:00
11:46 AM,37.4,32.0,81,30.13,9.0,West,18.4,28.8,0.00,,Scattered Clouds,270,2012-12-10 18:46:00
11:53 AM,37.9,32.0,79,30.17,10.0,West,19.6,33.4,0.00,Rain,Light Rain,270,2012-12-10 18:53:00
12:53 PM,39.9,30.9,70,30.16,10.0,West,16.1,31.1,0.00,,Clear,270,2012-12-10 19:53:00
1:53 PM,41.0,30.9,67,30.13,10.0,West,18.4,31.1,0.00,,Clear,280,2012-12-10 20:53:00
2:53 PM,39.9,30.0,68,30.10,10.0,West,21.9,33.4,0.00,,Clear,270,2012-12-10 21:53:00
3:53 PM,39.0,28.9,67,30.11,10.0,West,23.0,33.4,0.00,,Clear,280,2012-12-10 22:53:00
4:53 PM,36.0,28.9,76,30.11,10.0,West,18.4,31.1,0.00,,Clear,270,2012-12-10 23:53:00
5:53 PM,35.1,28.9,78,30.13,10.0,West,17.3,25.3,0.00,,Clear,260,2012-12-11 00:53:00
6:53 PM,35.1,28.9,78,30.13,10.0,West,18.4,28.8,N/A,,Clear,260,2012-12-11 01:53:00
7:53 PM,35.1,28.9,78,30.12,10.0,West,18.4,25.3,N/A,,Clear,260,2012-12-11 02:53:00
8:53 PM,34.0,28.0,79,30.14,10.0,WSW,8.1,-,N/A,,Clear,250,2012-12-11 03:53:00
9:53 PM,33.1,28.9,85,30.13,10.0,WSW,10.4,-,N/A,,Clear,240,2012-12-11 04:53:00
10:53 PM,33.1,28.0,82,30.12,10.0,WSW,10.4,-,N/A,,Clear,250,2012-12-11 05:53:00
11:53 PM,33.1,28.0,82,30.12,10.0,WSW,5.8,-,N/A,,Clear,250,2012-12-11 06:53:00